Wind_Speed
21 21 22 21 20 19 18 18 18 18 18 18 18 17 16 17 19 19 18 18 18 18 18 18 17 18 18 18 17 16 15 14 14 14 14 14 14 15 15 14 14 13 12 10 8 7 6 5 4 3 3 3 2 3 3 3 4 4 5 5 5 5 5 4 4 4 4 4 4 3 3 2 1 1 2 4 5 4 4 3 3 3 3 3 4
23 23 23 22 21 20 19 19 20 19 19 19 19 18 16 18 19 19 19 18 18 18 18 18 18 18 19 18 18 17 17 16 15 15 14 14 14 14 14 14 14 13 12 9 8 7 6 6 5 4 4 3 3 3 4 4 4 5 5 5 5 5 5 5 4 3 3 4 4 4 3 2 1 1 2 4 5 5 4 4 4 4 4 4 4
24 24 23 22 21 21 21 21 20 20 20 20 20 19 18 19 19 19 18 17 17 17 18 18 18 19 19 19 18 18 18 17 16 15 15 14 14 14 14 14 13 12 11 10 8 7 7 7 6 5 5 4 4 4 4 4 4 5 5 5 6 6 5 5 4 3 3 3 4 4 3 1 1 1 2 3 5 5 5 5 5 4 4 4 4
24 23 22 22 22 22 22 22 21 21 21 21 21 20 19 19 19 19 18 17 17 17 17 18 19 20 20 19 19 19 19 18 16 16 15 15 14 14 14 14 13 12 11 10 8 7 7 7 7 6 6 5 5 5 5 5 5 5 5 5 6 6 5 5 5 4 3 3 3 4 3 1 1 1 2 3 4 5 5 5 5 5 5 5 4
24 23 23 23 23 23 23 23 22 22 21 22 22 22 22 21 20 19 18 18 18 18 18 19 20 20 21 20 20 19 19 18 17 16 16 16 15 14 13 13 13 13 12 11 9 7 8 8 7 7 7 6 6 5 5 5 5 5 5 5 6 5 5 5 5 4 3 3 3 3 3 1 1 1 1 2 4 5 5 5 5 5 5 5 4
25 24 24 25 25 25 25 24 23 23 23 23 23 24 24 23 21 19 18 19 19 20 19 20 21 21 21 21 21 20 19 19 17 16 16 17 16 15 14 13 13 13 12 11 10 8 8 8 8 7 7 7 7 6 6 6 6 5 6 6 6 6 5 5 4 4 3 3 3 3 3 2 1 1 1 2 4 6 6 5 5 5 5 5 5
27 27 27 27 27 27 26 25 25 24 24 25 25 25 25 24 23 20 19 19 21 22 22 21 21 21 22 22 21 21 20 19 18 15 15 17 16 16 15 14 14 13 12 11 10 9 8 9 9 8 7 8 8 7 6 7 6 6 6 7 7 6 5 5 4 4 3 3 3 3 2 2 1 1 1 2 3 5 6 6 6 6 6 5 5
28 28 28 28 28 28 27 26 26 25 26 26 26 26 26 26 24 22 21 21 22 23 23 22 21 21 22 22 22 21 21 20 18 17 16 16 17 16 15 15 14 13 13 12 10 9 9 9 10 9 8 9 9 9 8 7 7 7 7 7 7 7 6 5 5 4 3 3 3 2 1 1 1 1 1 1 3 4 6 7 7 6 6 6 5
29 29 29 29 29 28 28 27 26 26 26 26 27 27 27 27 26 24 23 24 24 24 25 24 21 22 23 23 22 22 22 21 20 18 17 16 16 16 16 15 14 13 13 12 11 10 10 9 10 10 9 9 10 10 9 8 8 8 8 8 8 7 7 6 5 4 3 3 2 2 1 1 1 1 1 1 2 4 6 7 7 7 7 6 6
30 30 30 30 30 29 29 28 26 26 27 27 28 28 28 28 26 25 25 25 23 24 26 24 21 22 23 24 23 23 23 23 22 20 18 17 17 17 16 15 14 13 13 11 11 10 10 10 11 11 10 11 11 11 11 10 10 10 9 9 9 8 7 7 6 5 4 3 2 2 1 1 1 1 1 1 2 3 5 6 7 7 7 7 7
31 31 31 31 30 30 29 28 27 27 27 28 28 27 26 25 24 25 25 25 22 21 22 22 23 24 24 25 25 24 24 23 22 21 19 17 17 17 16 15 14 13 13 11 11 10 11 11 11 12 12 12 12 12 12 12 11 10 10 9 9 9 8 8 7 6 5 4 3 2 1 2 2 2 1 1 1 2 4 6 7 7 7 7 7
31 31 31 30 30 30 29 28 28 27 27 27 26 24 23 22 21 22 22 23 22 21 22 23 25 25 24 26 26 26 25 24 22 20 19 18 17 17 16 15 14 13 13 12 11 11 11 12 12 13 13 13 13 13 13 13 13 12 11 11 10 9 9 9 8 7 6 5 4 2 2 2 3 3 2 1 1 2 3 5 6 7 7 7 7
30 31 31 30 30 30 30 29 29 28 28 27 25 23 22 22 21 20 21 21 21 22 24 25 25 25 26 27 27 27 26 26 24 21 19 18 17 17 16 15 13 13 13 12 12 12 12 12 13 13 13 14 14 14 14 14 14 13 12 12 11 10 10 10 9 8 7 6 5 3 3 2 3 4 3 2 2 1 2 4 6 7 7 7 7
30 31 31 31 31 31 30 30 30 29 28 27 26 25 24 23 23 22 22 22 22 23 25 26 26 27 28 28 29 28 27 27 26 23 21 19 18 17 16 15 13 13 12 13 13 13 13 13 14 14 14 15 15 14 15 15 15 14 13 13 12 11 11 11 10 10 8 7 6 5 4 3 3 4 4 3 3 2 2 3 5 6 7 7 8
31 31 32 32 32 31 31 31 31 30 29 27 26 25 25 25 24 25 25 25 24 25 26 27 27 28 30 30 30 29 26 25 25 25 23 21 18 17 16 15 14 13 13 13 13 13 13 14 14 15 15 15 16 15 16 16 16 16 15 14 13 13 12 12 12 11 10 9 8 6 5 4 3 3 4 5 4 3 3 3 4 5 7 7 8
32 33 33 33 32 30 31 32 32 31 30 27 25 25 24 25 25 26 26 27 26 26 27 28 29 31 33 33 30 28 26 26 27 26 24 21 19 17 16 15 14 13 13 13 13 14 14 15 15 16 16 16 17 17 17 17 17 17 16 15 14 14 14 14 13 12 11 10 9 8 7 6 5 4 4 5 6 5 4 4 4 5 6 7 8
34 34 34 33 30 30 32 33 33 32 30 26 24 24 23 23 25 26 27 29 29 28 28 29 31 33 34 33 29 26 26 27 27 26 24 22 20 18 17 15 14 14 14 14 14 14 15 16 16 16 17 17 17 18 18 18 19 19 18 16 16 16 15 15 15 14 13 12 11 10 9 7 6 5 4 5 6 6 6 5 5 5 6 7 8
34 33 33 32 32 33 34 34 33 31 28 25 22 22 22 22 24 25 27 28 28 27 27 29 31 32 33 32 29 26 27 27 27 26 24 23 21 19 17 16 15 15 14 14 14 15 16 16 17 17 18 18 18 19 19 20 20 20 19 18 17 17 17 16 16 16 15 14 13 12 11 9 8 7 6 5 6 7 7 7 6 6 6 7 8
32 32 32 33 35 35 35 34 33 30 27 24 21 21 21 22 23 25 25 25 26 26 27 30 33 34 35 33 30 28 27 26 26 25 24 23 21 19 17 17 16 16 15 14 15 15 15 16 17 18 19 19 19 19 20 20 21 21 20 19 19 19 18 18 17 17 16 15 15 13 12 11 10 8 7 7 7 7 8 8 8 7 7 7 8
32 32 33 34 35 35 35 33 30 27 24 22 20 21 22 22 23 23 22 23 25 28 31 34 35 36 35 32 28 27 26 25 26 25 24 23 21 19 18 17 17 17 16 15 15 15 16 17 18 19 19 20 20 20 20 21 22 22 21 21 21 21 20 20 19 19 18 17 17 15 14 13 12 11 10 9 8 8 9 9 9 9 8 8 8
32 33 34 34 35 34 33 30 26 23 22 20 19 20 20 21 22 20 18 21 26 31 33 35 33 31 28 26 24 23 23 23 23 23 22 22 20 19 19 18 18 18 17 16 16 16 16 17 18 19 20 20 20 20 21 21 22 22 22 22 23 23 22 22 21 21 20 19 19 18 17 16 15 14 12 11 10 9 9 10 10 10 9 9 8
32 33 34 34 33 31 28 24 21 20 19 19 18 18 19 20 21 19 18 22 27 31 31 30 27 23 21 21 20 21 21 22 23 23 22 21 19 19 19 19 18 18 17 16 16 16 16 17 18 19 20 20 20 20 21 21 22 23 23 23 24 24 24 23 23 22 22 21 21 20 19 18 17 16 15 14 13 11 11 10 10 11 11 10 10
33 33 33 32 30 27 23 18 16 16 15 15 15 17 19 19 19 19 20 23 26 27 25 22 20 19 19 20 21 21 22 24 23 23 22 21 20 19 19 19 19 18 17 16 16 16 16 17 18 19 19 20 20 20 20 21 22 23 23 24 24 25 25 25 24 24 23 23 22 22 21 20 19 18 17 16 15 14 13 12 11 11 12 12 11
32 32 32 30 28 22 18 14 14 14 14 15 15 15 16 17 17 17 20 22 22 21 19 18 18 19 20 21 22 22 22 24 24 23 23 22 20 19 19 19 19 18 17 16 16 15 16 18 19 19 19 19 19 19 20 20 21 23 23 23 24 24 25 26 26 25 25 24 24 23 23 22 22 21 19 18 17 16 15 14 13 13 13 13 13
31 31 30 28 24 18 14 12 13 14 15 14 15 14 14 15 14 14 16 17 17 17 17 18 19 19 21 22 23 23 23 23 23 22 21 21 21 21 20 19 19 19 18 17 16 16 16 17 18 19 19 19 19 19 19 20 21 22 23 23 24 24 25 26 27 27 26 25 25 24 24 24 24 23 22 20 19 18 17 16 16 15 14 14 14
30 30 29 26 20 15 12 13 14 15 15 15 14 14 14 14 14 14 14 14 15 17 19 20 21 20 21 21 22 23 22 22 22 21 21 21 21 21 20 19 19 19 18 18 17 17 16 17 17 18 19 19 19 19 19 19 20 22 22 23 23 24 25 26 27 27 27 27 26 25 24 25 25 25 24 23 22 21 19 18 18 17 16 15 15
29 30 27 21 16 14 15 16 16 15 15 14 14 14 15 14 15 15 14 16 18 18 19 20 20 19 19 20 20 21 22 23 23 23 23 22 21 20 20 19 19 19 19 18 18 17 16 17 17 17 18 18 18 18 18 19 20 21 21 22 22 23 24 25 26 27 28 28 27 25 25 26 26 26 26 25 24 23 22 20 20 19 19 18 17
29 28 22 17 15 16 17 17 15 14 14 14 16 16 16 16 16 15 16 18 18 17 17 17 17 17 18 19 20 21 21 22 22 22 22 21 20 20 19 19 19 19 19 19 18 17 16 17 17 17 17 17 17 18 18 19 19 20 21 21 22 22 23 24 25 26 28 29 27 26 26 26 26 27 26 26 25 24 24 23 22 21 21 20 19
28 24 18 15 16 17 16 15 14 13 12 15 17 17 15 17 18 18 19 19 16 15 14 14 15 16 17 18 19 19 19 20 21 21 21 20 19 19 19 19 18 18 18 18 18 17 16 16 16 17 17 17 17 17 18 18 19 20 21 21 22 22 23 23 24 26 28 29 28 27 26 26 26 27 26 26 26 26 25 24 24 24 23 22 22
24 19 15 15 16 17 15 14 14 12 12 14 15 16 17 18 18 17 17 17 16 14 14 14 15 16 17 17 17 17 18 18 19 19 18 17 18 19 19 18 17 17 16 16 16 16 16 16 16 16 17 17 17 17 17 18 19 20 20 21 22 22 23 23 24 25 27 28 28 27 26 27 27 27 27 26 26 26 26 26 26 26 26 25 24
18 15 16 16 16 16 14 12 12 13 13 14 14 16 17 17 16 15 15 15 15 14 14 14 14 14 15 15 15 16 17 17 18 17 16 16 17 17 17 17 16 15 14 14 15 16 15 15 15 16 16 17 17 17 17 17 18 18 19 20 21 22 22 22 23 24 26 27 27 27 27 27 28 27 27 26 26 26 27 27 27 28 28 27 26
17 16 15 14 13 12 12 10 11 13 13 13 13 14 16 15 13 12 13 13 13 13 12 12 12 12 13 13 14 15 15 15 16 15 15 16 16 16 16 16 15 14 13 13 14 14 15 15 15 15 16 16 17 17 17 16 16 17 17 18 20 20 21 22 23 23 25 25 26 27 28 28 29 28 27 27 26 26 27 27 29 30 29 29 28
18 15 10 8 7 10 10 10 11 13 13 14 14 15 17 14 10 10 12 12 11 11 10 10 11 11 12 12 13 14 14 15 14 14 14 14 14 15 15 14 14 12 12 12 13 14 15 15 15 15 15 16 16 16 16 16 16 16 17 18 19 20 20 21 22 23 24 24 24 26 28 28 27 27 27 26 26 27 28 28 29 29 27 27 29
16 14 11 9 5 9 9 10 13 15 15 15 16 17 16 13 10 10 10 10 10 10 10 10 10 11 11 12 12 13 14 14 14 13 13 13 13 13 13 13 13 12 11 12 12 14 15 15 15 15 15 15 16 16 16 16 16 16 17 18 18 19 20 21 21 22 22 23 23 24 26 26 26 28 28 26 27 27 26 27 27 24 22 24 27
13 14 13 9 5 8 11 14 15 17 16 15 16 16 15 12 10 10 10 10 10 10 10 11 11 10 10 11 11 12 13 13 13 12 12 13 13 12 12 13 12 12 12 11 12 14 15 15 14 14 15 15 16 16 17 17 16 16 16 17 18 18 19 20 21 21 21 21 21 22 22 22 23 27 27 24 23 23 23 25 26 24 23 24 24
9 9 8 5 4 8 14 17 17 15 14 15 15 16 14 12 11 11 11 11 11 11 11 11 11 11 11 11 10 11 12 12 12 12 12 12 12 12 12 12 12 13 12 12 13 13 14 14 13 13 15 16 17 17 17 17 16 16 16 16 17 18 19 20 20 21 21 20 20 19 19 18 19 22 24 23 22 22 23 24 25 26 25 24 24
8 6 5 4 4 8 13 16 16 14 14 15 15 14 13 11 11 12 12 12 12 12 11 11 11 11 11 11 11 12 12 12 11 11 11 11 11 11 12 12 12 13 13 13 14 13 13 13 12 13 15 16 17 17 17 17 16 16 16 16 17 18 19 19 20 21 21 21 20 19 18 17 17 19 21 21 22 22 22 22 24 25 25 25 24
12 8 7 6 6 8 14 15 14 14 15 14 12 11 11 11 11 12 13 13 13 13 12 12 11 12 12 12 13 13 13 13 12 11 11 11 11 11 12 12 12 13 13 14 14 13 12 12 13 14 15 16 16 16 17 17 17 16 16 16 16 17 18 19 20 21 21 21 19 18 17 18 18 18 18 18 19 20 21 22 23 25 26 26 26
15 12 11 9 6 9 15 13 12 12 12 10 9 8 9 10 11 12 13 13 13 13 13 12 12 12 11 12 13 13 14 14 13 12 11 11 11 11 12 12 12 13 13 13 14 13 11 12 13 14 15 15 15 16 16 16 17 17 16 16 16 16 17 18 19 20 21 21 20 18 17 18 18 18 18 18 19 19 20 22 22 24 27 28 27
16 15 13 12 9 11 14 13 12 12 10 9 8 9 9 10 12 13 14 13 13 13 13 12 12 11 11 12 13 13 14 15 15 14 12 11 11 11 12 12 13 13 13 13 13 12 12 12 13 14 14 15 15 15 15 16 17 17 17 16 16 16 16 17 18 19 20 20 21 20 19 18 19 19 19 19 19 19 20 21 22 24 26 26 25
17 15 13 13 12 13 13 13 13 13 11 11 11 11 11 12 13 14 14 13 13 12 12 12 11 11 12 13 13 14 14 15 15 15 14 12 11 11 12 12 13 13 13 13 13 13 12 13 13 14 14 14 15 14 14 15 15 15 15 16 17 17 17 17 16 17 18 19 19 20 19 19 19 20 20 19 20 20 21 22 22 24 25 24 24
17 15 14 14 15 14 12 13 13 13 14 14 13 13 13 14 14 15 14 13 12 12 11 11 11 11 13 14 15 14 15 15 15 15 14 12 11 11 12 12 13 13 14 13 13 14 14 13 13 13 14 14 14 13 13 14 13 14 14 15 16 16 17 16 16 16 17 18 18 19 19 19 19 19 20 20 20 21 22 22 23 24 25 24 24
16 14 15 15 15 14 13 14 15 15 16 16 16 16 15 15 15 15 14 13 12 12 11 11 11 12 13 15 15 15 14 15 16 15 14 13 11 10 11 12 13 14 14 14 14 14 14 14 14 13 13 14 14 14 14 14 14 14 15 16 15 16 17 16 16 16 16 17 18 18 18 18 19 19 19 19 20 20 21 22 22 23 23 24 24
14 14 15 14 14 14 14 15 16 16 17 18 18 17 16 15 15 14 14 13 12 12 11 11 11 12 13 15 15 15 14 14 15 15 15 14 12 10 10 11 12 14 15 15 15 15 15 15 15 15 14 15 15 15 15 15 16 16 16 16 16 16 17 17 17 17 16 16 17 18 18 18 19 19 19 19 20 20 20 20 21 22 22 23 23
11 12 12 13 14 14 15 16 16 17 19 19 19 18 16 15 13 13 14 13 12 12 11 11 11 11 13 14 15 15 14 14 14 14 14 15 14 12 11 10 11 13 15 15 16 16 16 17 17 16 16 15 16 17 17 17 17 18 18 17 16 16 17 16 17 17 16 16 17 17 17 18 18 18 18 19 20 20 20 19 20 21 20 20 21
8 9 10 12 14 14 16 18 19 19 20 21 20 19 17 16 14 14 14 14 13 13 12 12 12 12 12 13 14 15 14 14 14 13 13 14 14 14 14 12 12 12 14 15 16 16 17 18 18 18 17 17 17 18 19 19 19 20 19 18 18 17 17 17 17 17 17 17 17 17 17 17 17 17 18 19 19 20 19 19 19 20 20 20 20
8 10 11 13 15 16 17 19 20 21 21 22 21 19 18 17 16 15 15 15 14 14 14 14 13 13 13 13 14 16 16 15 14 14 13 13 13 15 16 16 14 13 13 15 16 17 18 18 19 19 19 19 19 19 20 20 20 21 20 20 19 19 18 18 17 18 17 16 16 17 18 18 17 18 18 18 19 19 18 19 20 21 21 20 20
11 13 15 16 17 18 19 20 21 22 22 22 21 20 18 18 17 16 16 16 15 16 16 15 15 15 15 14 14 16 17 17 16 16 16 16 17 18 18 19 18 15 14 14 15 17 18 19 20 20 20 20 20 20 21 21 21 21 21 21 20 20 19 19 18 18 17 17 16 17 18 18 18 18 18 19 19 19 19 19 20 20 19 19 19
15 17 19 20 21 21 21 22 23 25 25 24 23 21 19 18 18 17 16 16 16 17 17 16 16 16 16 16 15 16 18 19 19 19 19 20 21 21 19 19 19 17 15 15 16 16 17 18 19 20 21 21 21 22 21 21 21 21 21 20 20 20 20 20 19 18 19 19 18 18 18 18 18 18 18 20 21 21 20 20 21 21 21 21 21
19 23 25 24 23 22 23 24 25 26 26 26 24 20 18 18 18 18 17 17 17 17 17 17 16 16 17 17 16 16 17 19 20 21 21 22 23 22 20 19 19 18 16 15 15 16 17 18 18 20 21 21 22 22 22 22 21 21 20 20 20 20 20 20 20 19 20 20 19 18 18 18 18 18 19 20 21 22 22 22 22 22 22 23 23
25 28 27 25 22 21 22 22 22 23 25 26 24 18 16 18 18 18 18 17 17 17 17 17 17 17 18 18 18 18 18 19 20 21 21 22 22 22 20 19 18 17 16 15 15 15 16 16 17 18 20 21 22 22 22 22 21 21 21 20 20 20 20 20 20 20 20 20 20 19 19 18 19 19 19 19 19 20 22 23 24 23 23 22 23
Wind_Direction
268 267 267 268 270 272 275 275 277 279 283 288 295 303 309 316 320 315 309 311 310 308 306 306 309 313 313 309 306 305 306 308 310 313 317 320 320 319 319 319 319 317 316 316 315 312 305 300 293 283 270 247 230 234 250 267 286 302 308 316 322 328 330 319 302 282 269 263 261 258 254 254 237 202 202 198 191 182 174 177 180 181 182 171 152
264 264 265 268 270 273 274 274 276 279 283 288 294 299 304 310 316 315 307 305 307 305 302 302 304 309 310 307 305 305 305 306 308 310 313 316 317 316 316 315 314 314 314 312 309 305 297 292 283 268 264 249 234 237 245 260 280 298 306 314 320 328 334 328 317 298 280 269 266 262 258 259 236 188 193 195 191 185 179 180 183 186 184 175 164
264 265 266 268 271 273 273 274 275 278 282 286 291 295 300 305 310 315 311 303 303 302 299 298 300 304 307 305 304 304 304 305 307 308 309 311 312 312 312 312 311 311 310 308 302 298 292 286 280 264 259 248 234 242 245 253 273 294 304 312 318 326 336 337 331 316 295 279 272 267 262 268 254 188 186 192 191 187 184 183 185 187 186 179 172
267 266 266 267 269 270 271 272 273 276 280 284 289 293 297 301 305 311 311 303 300 298 295 294 296 300 304 303 303 303 303 304 304 305 305 306 308 309 309 310 310 309 306 304 299 292 287 281 277 265 257 248 235 244 252 257 270 289 302 307 315 324 336 344 341 330 313 290 275 271 269 276 275 210 182 188 189 190 188 187 189 188 185 181 178
265 263 264 265 266 267 269 270 273 275 279 283 287 292 296 300 304 305 304 302 299 296 292 290 291 296 300 300 300 300 302 302 301 303 302 302 303 305 307 309 308 306 302 300 296 288 281 277 273 264 256 248 239 243 254 260 267 282 295 300 309 321 334 344 345 339 325 302 279 271 274 281 286 243 190 191 190 190 190 190 193 190 187 183 181
259 260 261 263 265 267 268 270 273 276 279 282 287 292 296 299 303 301 297 297 298 294 288 285 286 292 296 297 296 296 300 300 298 298 298 298 300 302 305 306 305 302 299 295 293 286 278 273 270 263 254 247 240 240 252 259 264 273 282 291 300 313 326 337 346 345 331 308 284 275 279 289 291 270 206 200 196 192 190 190 193 193 191 186 184
258 259 261 263 266 268 269 270 273 276 280 284 288 292 295 298 301 299 295 292 292 290 283 279 281 288 293 292 292 293 298 297 293 292 291 293 295 298 301 302 301 298 296 292 289 285 278 272 267 262 251 245 241 238 248 257 262 266 271 280 290 301 315 328 340 346 340 314 287 279 283 295 299 284 233 211 208 200 194 190 191 194 193 190 187
258 260 263 265 267 268 269 270 273 278 282 286 289 292 294 295 297 296 293 290 286 283 277 272 274 282 289 288 287 290 294 294 288 286 285 287 290 294 297 297 297 295 293 288 285 282 276 269 263 260 250 244 240 238 243 252 260 262 265 272 281 291 305 318 329 339 343 325 295 284 283 294 300 294 267 225 219 211 203 196 193 193 193 193 191
259 262 265 267 268 269 270 272 276 281 285 288 291 292 293 293 294 291 290 290 285 281 274 264 267 278 284 284 283 286 289 289 286 283 281 283 287 290 293 294 294 292 290 285 281 279 274 266 259 257 250 243 240 238 240 246 254 257 261 267 275 285 295 306 316 327 334 329 313 296 274 273 281 296 288 241 226 220 213 206 199 195 194 195 195
260 264 267 268 269 271 273 276 282 285 288 291 293 294 293 291 289 285 287 289 284 283 276 261 264 276 279 280 278 280 283 284 283 281 280 280 284 288 291 291 291 290 287 283 279 275 271 265 258 254 249 243 241 239 239 242 249 254 259 265 271 279 287 295 303 315 321 322 321 307 259 235 242 255 293 254 230 224 217 213 207 202 198 196 196
263 265 268 269 271 274 277 283 287 289 293 295 295 295 292 289 284 280 283 284 279 280 275 263 269 274 273 274 274 276 280 280 280 278 276 278 283 286 289 289 288 287 284 280 275 270 266 261 256 252 249 245 241 239 239 241 246 252 258 263 268 273 280 287 294 302 307 308 310 306 253 213 215 211 201 208 223 227 219 216 212 209 206 200 198
265 267 269 272 275 278 283 288 290 292 295 295 295 294 290 287 282 278 278 278 274 273 271 269 272 271 268 269 270 274 277 278 280 279 275 277 282 285 287 287 286 284 281 277 272 267 261 256 253 250 248 245 241 239 240 242 245 250 255 260 264 270 275 281 287 292 295 298 299 300 272 221 209 208 193 176 189 220 221 217 215 212 210 206 201
267 270 273 276 279 284 288 291 292 294 296 294 292 291 288 286 281 278 278 276 272 269 270 271 270 267 266 265 267 271 273 276 277 278 278 277 280 284 284 283 282 281 279 276 270 266 260 254 251 249 246 245 242 238 240 243 245 249 253 257 262 267 271 276 280 284 287 290 292 292 281 248 217 208 195 178 173 184 210 218 217 214 213 211 207
271 274 277 281 285 288 291 293 294 296 296 293 290 287 284 283 279 275 274 273 269 267 268 271 270 265 263 262 263 265 268 273 273 274 277 277 278 280 281 280 280 279 277 275 270 266 260 254 249 247 244 244 244 240 240 242 245 248 252 254 259 263 267 270 274 278 281 283 284 284 280 265 237 215 199 185 177 175 187 206 215 215 213 211 210
275 278 282 286 288 290 291 293 295 295 294 292 289 285 280 279 276 271 268 267 265 263 265 268 269 265 260 258 257 259 263 268 269 271 274 275 276 277 277 278 280 279 274 272 270 267 263 257 251 247 245 243 244 242 240 242 244 246 249 252 255 259 262 265 268 271 274 275 276 276 274 268 255 231 209 195 186 180 181 191 205 212 213 211 209
278 283 286 289 290 290 292 293 293 293 293 292 287 281 278 275 272 267 263 262 261 259 260 264 266 263 258 252 250 255 259 262 265 268 271 272 274 274 273 274 277 277 273 271 270 268 266 261 256 251 247 244 244 244 242 242 243 245 247 250 252 256 258 261 263 265 267 269 271 271 270 267 261 247 225 208 197 189 185 188 194 204 209 209 208
282 286 289 290 291 292 293 293 293 294 293 290 284 278 274 270 267 262 258 257 257 255 258 263 263 259 252 245 242 246 253 258 262 265 268 271 273 272 270 271 274 275 274 274 272 269 266 264 260 255 251 246 244 244 244 243 244 245 246 248 250 253 256 258 260 261 263 264 266 267 267 266 262 255 242 224 211 201 192 188 191 198 205 208 207
286 289 290 291 291 292 294 295 295 295 292 288 283 276 270 266 262 257 253 252 253 253 258 260 256 251 246 241 237 242 250 257 261 265 268 271 272 271 271 272 275 276 275 274 272 269 266 264 261 258 253 248 244 242 243 244 245 246 246 247 248 251 254 256 257 258 260 261 262 262 263 263 260 255 247 237 224 214 205 196 193 196 202 207 207
290 292 291 290 292 293 295 295 294 294 291 286 284 277 268 260 255 251 249 250 253 253 254 251 247 247 247 243 240 244 250 256 261 265 268 270 271 271 272 275 279 280 279 276 273 271 267 264 260 257 253 249 245 242 242 243 245 247 247 248 248 248 250 252 253 255 256 257 258 257 258 258 255 252 248 243 233 225 217 208 201 198 200 205 209
293 292 291 291 292 293 294 294 293 293 289 285 284 279 266 254 249 248 248 250 251 249 247 245 245 249 249 245 244 247 253 258 261 264 267 270 273 274 275 279 282 283 282 280 275 272 269 265 261 258 255 251 248 244 242 243 245 247 248 249 249 249 248 249 250 251 252 252 254 254 253 255 254 251 248 243 237 231 225 219 212 206 204 205 209
292 292 292 292 293 292 293 293 292 292 288 282 282 276 260 251 249 250 253 252 248 245 244 242 245 252 252 250 250 254 258 261 262 265 269 272 274 277 279 281 283 284 283 282 278 272 268 267 263 259 256 253 250 246 244 243 245 247 248 248 250 250 249 249 249 250 250 250 251 252 251 251 252 252 251 245 239 234 231 227 222 216 210 209 210
292 293 293 293 292 292 293 293 292 291 285 280 279 271 261 255 251 250 254 252 246 246 246 245 248 254 255 255 256 256 260 264 267 268 271 274 276 278 281 283 285 286 286 284 280 274 270 267 263 259 255 253 251 248 246 244 245 248 249 248 248 250 250 250 250 249 250 250 251 251 250 249 249 250 251 248 243 239 236 233 229 224 220 216 214
292 292 292 292 292 292 292 291 286 281 275 271 267 262 261 257 246 247 251 248 247 249 251 253 255 256 258 262 263 262 263 267 270 271 273 275 277 279 281 283 284 286 286 283 278 274 269 265 262 258 254 252 251 248 245 245 245 247 249 249 249 249 250 250 250 250 250 251 251 252 252 250 248 248 248 248 247 243 241 239 236 231 228 224 220
291 291 291 290 289 289 287 282 274 266 259 255 252 252 257 247 234 242 249 248 250 251 252 257 258 258 262 266 267 268 268 269 271 274 274 275 277 280 281 281 281 281 281 279 275 270 265 262 258 254 251 249 249 247 244 243 244 246 248 250 250 249 249 249 249 249 249 250 251 252 253 252 251 249 246 246 247 246 245 243 241 238 235 232 228
291 289 287 285 283 281 279 273 262 252 247 243 242 246 245 233 228 239 243 240 242 246 251 255 255 256 260 265 267 268 270 271 273 273 272 273 277 279 279 278 277 276 275 274 271 265 261 258 255 251 249 247 246 245 241 240 242 244 246 248 249 249 249 248 249 249 250 249 249 250 253 254 254 251 249 247 246 247 247 246 245 243 240 238 236
287 283 280 277 275 274 271 261 250 245 244 238 232 230 224 225 241 241 229 230 238 248 252 252 254 257 261 265 267 267 267 269 272 276 277 279 280 279 278 276 273 272 271 269 265 261 258 256 254 251 248 246 244 243 240 238 240 242 244 246 247 248 249 249 249 249 250 250 249 249 251 253 254 253 252 250 248 248 248 247 246 246 245 243 242
279 275 272 273 273 271 260 247 240 238 240 236 227 224 223 230 240 231 227 244 252 253 253 253 258 262 266 269 271 271 271 270 274 279 283 284 282 280 278 276 273 271 269 266 262 258 254 253 253 250 247 244 243 242 239 237 238 241 243 244 245 247 248 249 250 250 250 251 250 249 249 251 253 255 254 252 251 249 249 249 247 247 247 246 245
270 268 269 273 275 266 256 251 246 241 237 233 229 226 229 232 233 233 245 257 258 256 256 260 266 269 273 276 276 275 276 277 278 279 280 280 279 277 275 273 272 272 271 268 263 258 253 251 250 249 247 243 241 240 238 236 236 239 241 242 244 245 246 247 248 249 250 251 251 250 250 251 253 255 255 254 253 252 251 251 250 249 248 249 249
265 267 270 276 274 263 259 257 250 245 238 230 228 224 222 224 229 240 252 257 259 259 262 267 271 273 275 275 276 278 279 278 277 275 276 278 277 274 272 271 270 272 272 270 265 259 254 251 250 250 249 246 242 239 237 234 234 236 239 241 243 245 246 247 247 248 250 251 252 252 251 251 252 254 255 254 254 254 253 252 253 252 250 250 251
267 266 268 271 266 257 257 253 241 236 225 212 216 222 224 226 230 240 249 254 258 260 264 268 270 272 274 275 278 280 280 278 277 279 281 282 281 277 272 269 269 273 275 272 266 260 255 253 252 252 252 249 244 240 238 235 234 235 238 241 243 245 247 248 248 249 250 251 252 252 252 252 251 252 253 253 253 253 253 252 253 253 252 251 251
268 266 269 270 265 254 248 242 229 220 209 201 209 219 227 233 232 235 245 251 256 259 261 263 266 272 275 278 281 282 281 280 281 288 291 286 284 285 282 276 273 274 276 273 266 262 260 257 254 254 253 249 244 241 239 237 235 235 238 241 243 244 246 248 249 250 252 252 252 252 253 253 253 252 251 252 252 253 253 253 253 253 252 252 251
271 270 269 273 268 247 230 221 211 210 212 213 216 220 231 239 232 233 247 252 255 257 257 261 268 275 278 280 282 282 281 279 282 292 294 289 285 284 284 283 277 273 274 271 266 266 265 261 257 255 253 249 245 244 242 240 239 238 239 240 242 243 244 246 248 250 251 253 252 252 254 254 252 251 251 252 253 253 254 254 253 253 254 254 253
277 266 267 285 257 217 209 206 210 222 228 228 230 234 238 238 233 241 250 250 251 252 255 263 272 279 280 281 281 280 278 279 287 297 295 292 288 281 283 287 281 275 274 271 268 268 266 264 262 258 254 251 248 246 245 244 243 245 245 244 244 244 244 245 247 249 251 253 253 252 254 255 250 247 250 252 252 253 253 254 254 255 259 260 257
278 266 284 301 240 203 212 217 223 231 233 234 237 237 235 231 234 244 245 245 248 251 259 267 273 277 278 278 280 280 281 284 292 298 293 291 290 285 287 289 283 280 278 275 273 271 267 267 267 262 256 253 250 247 246 247 248 250 251 249 247 247 247 247 248 250 252 254 254 254 255 257 252 246 247 250 251 252 252 254 258 261 265 265 261
281 279 292 296 250 229 238 239 233 229 229 229 229 230 229 230 235 237 236 240 245 251 263 271 275 277 277 277 279 280 282 286 292 294 289 288 291 288 287 287 284 282 282 280 278 272 267 267 266 261 258 255 250 247 247 249 250 252 253 253 251 250 251 251 251 251 253 254 256 257 256 257 253 244 244 248 250 253 254 255 261 265 266 265 264
291 287 292 298 269 247 244 239 228 226 227 220 223 229 228 229 231 231 233 238 244 252 261 269 275 277 278 278 278 279 281 285 288 288 284 284 288 289 288 287 285 284 285 283 279 273 268 267 264 260 260 257 252 249 249 250 252 253 254 254 254 254 253 253 253 253 254 255 256 258 257 256 251 242 243 250 254 256 255 256 260 263 263 262 262
286 295 297 305 295 256 234 225 220 223 222 216 223 227 224 225 228 230 235 241 247 252 257 263 269 273 277 280 280 281 281 283 285 284 281 280 281 283 284 286 285 285 286 283 279 275 271 267 261 260 261 259 257 255 254 254 255 256 256 256 256 255 255 254 255 256 256 257 258 260 259 256 251 246 246 250 254 257 256 255 257 260 260 259 258
271 285 292 296 299 244 209 205 208 208 208 215 223 223 224 230 232 238 243 246 248 251 256 262 268 273 279 284 287 288 287 287 287 285 282 280 280 281 283 286 286 286 286 284 282 278 274 269 264 263 263 262 261 260 259 258 258 258 258 258 257 256 254 254 254 256 258 258 260 263 263 259 255 252 251 251 253 258 260 258 256 257 256 255 255
266 275 278 279 282 223 203 202 201 201 208 216 222 227 234 237 241 247 247 247 248 251 256 262 268 274 281 285 287 289 289 288 286 284 281 280 280 280 281 282 282 282 282 282 284 282 278 273 269 266 265 264 262 263 262 261 260 261 260 259 259 258 256 254 254 255 255 257 258 262 264 263 259 257 256 255 255 258 262 264 262 260 257 252 250
265 271 271 266 252 212 211 216 216 224 225 217 227 239 245 247 248 249 247 247 247 251 257 261 268 276 283 287 287 287 286 285 282 279 277 275 274 273 273 275 276 277 277 278 281 283 278 271 268 266 264 261 260 263 262 262 263 262 261 259 259 261 260 257 255 253 254 255 257 259 263 266 264 263 261 259 260 261 263 265 266 266 265 260 255
261 262 257 258 247 222 224 229 229 234 224 219 236 244 249 252 250 250 248 245 244 249 256 262 271 280 286 288 287 287 286 284 281 279 278 275 271 269 269 270 272 274 277 278 279 281 278 272 268 265 262 257 257 261 261 262 262 260 259 258 258 263 265 263 261 257 255 255 257 259 262 265 265 265 264 263 263 264 263 264 266 267 268 268 265
256 252 242 247 246 234 232 230 228 229 225 231 241 244 249 251 250 249 246 243 244 249 256 264 273 281 287 288 288 287 286 286 283 280 279 277 274 271 269 268 269 272 275 277 278 278 277 274 271 266 261 257 256 259 259 259 259 259 260 260 260 263 265 266 265 263 260 258 258 259 260 262 264 265 265 266 266 266 265 266 266 266 267 267 266
246 239 235 240 241 237 233 227 223 225 231 238 241 245 248 247 248 249 246 246 248 252 258 265 274 282 287 289 289 288 286 286 285 283 281 277 274 273 273 271 269 270 272 274 275 276 276 274 272 268 264 259 257 258 258 258 260 261 261 262 264 265 265 267 267 266 264 263 262 262 263 264 264 265 265 266 267 268 268 267 266 266 267 266 265
230 229 232 234 238 239 234 228 226 231 240 243 244 247 249 250 252 254 254 254 255 259 262 267 276 284 288 288 288 288 286 283 282 283 282 279 274 270 270 271 269 269 270 272 273 275 275 274 272 269 265 262 260 260 259 259 260 262 263 263 265 266 267 272 274 269 265 265 266 266 265 265 266 267 267 267 268 271 272 271 270 269 267 266 265
222 227 233 235 238 238 233 235 239 242 246 248 249 250 253 255 258 260 262 261 262 265 266 270 279 287 289 284 282 284 284 281 279 279 282 283 282 277 272 270 270 269 269 270 271 273 274 274 273 270 266 262 260 260 260 260 260 262 264 266 268 268 269 273 274 272 271 270 269 269 268 267 268 269 268 268 270 273 276 275 272 270 268 266 264
230 234 240 239 241 241 239 244 247 246 247 250 252 252 254 256 257 260 261 262 264 266 267 272 278 285 286 279 275 277 278 276 275 276 279 284 288 289 285 280 276 275 273 271 270 271 273 274 273 271 268 265 261 259 259 259 260 261 263 266 267 268 270 273 272 274 274 269 267 269 270 271 271 271 270 270 270 271 275 277 275 273 273 273 270
239 240 243 244 246 245 242 243 244 245 247 249 251 251 251 252 252 254 256 258 261 264 266 270 275 281 284 280 272 271 273 272 271 271 271 279 291 297 295 288 282 280 278 276 273 272 273 274 274 272 271 268 266 263 262 261 261 262 263 264 266 266 269 270 270 273 267 259 264 268 269 272 274 273 273 272 271 272 273 273 274 274 274 276 277
245 241 242 243 243 241 240 241 242 244 245 245 246 246 245 245 247 248 251 255 259 263 266 270 276 281 284 286 277 270 270 272 273 273 270 275 288 297 297 291 284 281 280 279 277 274 273 274 274 274 273 272 270 269 268 267 265 266 266 266 267 267 267 266 266 268 263 260 267 269 269 273 274 274 274 272 271 272 269 267 268 273 278 280 280
242 240 241 241 238 236 236 238 239 239 238 237 238 238 238 239 242 245 249 255 260 265 269 275 280 283 285 287 284 276 270 271 274 276 277 280 288 295 296 289 282 280 280 280 279 278 277 277 277 277 276 276 274 273 272 272 271 270 270 270 269 266 265 263 262 262 261 263 267 267 269 272 272 272 271 270 271 270 269 268 268 271 275 277 276
238 238 236 235 235 236 238 244 245 238 233 230 228 230 233 236 241 245 250 256 262 267 274 280 284 285 284 283 283 280 274 272 273 276 279 284 288 292 292 285 279 277 279 280 281 281 282 283 284 283 282 281 280 279 278 276 275 274 272 271 269 267 264 261 260 259 258 261 263 264 265 268 269 270 269 269 270 269 269 269 269 270 271 273 272
238 238 237 235 237 242 246 253 256 248 242 233 225 225 231 236 243 247 252 257 263 270 276 282 286 284 282 280 279 278 276 273 273 275 280 284 287 289 288 282 276 274 276 280 282 283 283 285 287 287 287 285 284 282 281 280 278 276 273 271 269 267 264 262 260 259 258 260 260 261 261 263 266 267 267 267 267 268 267 266 267 268 270 270 269
Height
5864 5863 5863 5863 5863 5863 5863 5862 5862 5862 5862 5862 5861 5862 5862 5863 5863 5862 5861 5861 5860 5859 5858 5858 5858 5858 5857 5857 5857 5856 5856 5855 5855 5855 5855 5854 5854 5854 5853 5853 5852 5852 5852 5852 5851 5851 5851 5850 5850 5850 5850 5850 5850 5850 5850 5850 5850 5849 5849 5849 5849 5849 5849 5849 5849 5849 5849 5850 5850 5851 5851 5851 5851 5851 5852 5852 5852 5853 5853 5854 5854 5855 5855 5855 5856
5862 5861 5861 5861 5861 5861 5861 5861 5861 5861 5861 5860 5860 5861 5861 5862 5861 5861 5860 5859 5859 5858 5857 5857 5857 5857 5857 5856 5856 5855 5855 5854 5854 5854 5854 5854 5853 5853 5852 5852 5851 5851 5851 5851 5850 5850 5850 5850 5850 5850 5849 5850 5850 5850 5850 5849 5849 5849 5849 5849 5849 5849 5849 5849 5849 5849 5849 5849 5850 5850 5851 5851 5851 5851 5852 5852 5852 5853 5853 5854 5854 5855 5855 5855 5856
5860 5860 5859 5860 5860 5860 5860 5860 5860 5860 5859 5859 5859 5859 5860 5860 5860 5859 5859 5858 5857 5857 5856 5856 5856 5856 5855 5855 5854 5854 5853 5853 5853 5853 5853 5853 5852 5852 5851 5851 5850 5850 5850 5849 5849 5849 5849 5849 5849 5849 5849 5849 5849 5849 5849 5849 5849 5849 5849 5849 5849 5849 5849 5849 5849 5849 5849 5849 5849 5850 5851 5851 5851 5851 5851 5852 5852 5853 5853 5854 5854 5855 5855 5855 5856
5858 5858 5858 5858 5858 5858 5858 5858 5858 5858 5858 5858 5858 5858 5859 5859 5859 5858 5857 5857 5856 5856 5855 5855 5855 5855 5854 5854 5853 5853 5852 5852 5852 5852 5851 5851 5851 5851 5850 5850 5849 5849 5849 5848 5848 5848 5848 5848 5848 5848 5848 5848 5848 5849 5849 5848 5848 5848 5848 5848 5849 5849 5848 5848 5848 5848 5849 5849 5849 5850 5850 5850 5851 5851 5851 5852 5852 5853 5853 5854 5854 5855 5855 5855 5856
5857 5857 5856 5856 5857 5857 5857 5857 5857 5856 5856 5856 5856 5857 5857 5857 5857 5857 5856 5855 5855 5854 5854 5854 5854 5853 5853 5852 5852 5852 5851 5851 5851 5850 5850 5850 5850 5849 5849 5849 5848 5848 5847 5847 5847 5847 5847 5847 5847 5847 5847 5848 5848 5848 5848 5848 5848 5848 5848 5848 5848 5848 5848 5848 5848 5848 5848 5849 5849 5850 5850 5850 5850 5851 5851 5851 5852 5853 5853 5854 5854 5855 5855 5855 5856
5855 5855 5855 5855 5855 5855 5855 5855 5855 5855 5855 5855 5855 5855 5855 5855 5855 5855 5854 5854 5853 5853 5853 5853 5852 5852 5852 5851 5851 5851 5850 5850 5850 5849 5849 5848 5848 5848 5848 5848 5847 5847 5846 5846 5846 5846 5846 5846 5846 5846 5846 5847 5847 5847 5847 5847 5847 5847 5847 5847 5848 5848 5848 5848 5848 5848 5848 5849 5849 5850 5850 5850 5850 5851 5851 5851 5852 5852 5853 5854 5854 5855 5855 5855 5856
5853 5853 5853 5853 5853 5853 5853 5853 5853 5853 5854 5854 5854 5854 5854 5854 5853 5853 5853 5852 5852 5851 5851 5851 5851 5850 5850 5850 5849 5849 5849 5849 5848 5848 5848 5847 5847 5846 5846 5846 5846 5846 5845 5845 5845 5845 5845 5845 5845 5845 5846 5846 5846 5846 5846 5846 5846 5846 5846 5847 5847 5847 5847 5847 5847 5847 5848 5848 5849 5849 5850 5850 5850 5851 5851 5851 5851 5852 5853 5853 5854 5854 5855 5855 5855
5851 5851 5851 5851 5851 5851 5851 5852 5852 5852 5852 5852 5852 5852 5852 5852 5851 5851 5851 5850 5850 5849 5849 5849 5849 5849 5848 5848 5848 5847 5847 5847 5847 5847 5846 5846 5845 5845 5845 5845 5845 5845 5844 5844 5844 5844 5844 5844 5844 5844 5845 5845 5845 5845 5845 5846 5846 5845 5846 5846 5846 5846 5846 5846 5847 5847 5848 5848 5849 5849 5850 5850 5850 5851 5851 5851 5851 5852 5852 5853 5853 5854 5855 5855 5855
5849 5849 5849 5849 5849 5849 5850 5850 5851 5851 5851 5851 5851 5850 5850 5850 5850 5849 5849 5848 5848 5847 5847 5847 5847 5847 5847 5846 5846 5845 5845 5845 5845 5845 5845 5844 5844 5844 5844 5844 5843 5843 5843 5843 5843 5843 5843 5843 5843 5843 5844 5844 5844 5844 5844 5845 5845 5845 5845 5845 5845 5846 5846 5846 5846 5847 5847 5848 5848 5849 5849 5850 5850 5850 5851 5851 5851 5852 5852 5853 5853 5854 5854 5855 5855
5847 5847 5847 5847 5847 5847 5848 5848 5849 5850 5849 5849 5849 5848 5848 5848 5847 5847 5846 5846 5846 5845 5845 5845 5845 5845 5845 5844 5844 5843 5843 5843 5842 5842 5842 5843 5843 5843 5843 5842 5842 5842 5842 5842 5842 5841 5842 5842 5842 5842 5842 5843 5843 5843 5843 5844 5844 5844 5844 5844 5845 5845 5845 5845 5846 5847 5847 5848 5848 5848 5849 5850 5850 5850 5850 5851 5851 5851 5852 5852 5853 5853 5854 5854 5855
5845 5845 5845 5845 5845 5845 5846 5847 5848 5848 5847 5847 5846 5846 5845 5845 5845 5844 5844 5844 5844 5844 5843 5843 5843 5843 5843 5843 5842 5841 5841 5841 5840 5840 5840 5841 5841 5841 5841 5841 5841 5841 5841 5841 5840 5840 5840 5841 5841 5841 5841 5841 5842 5842 5842 5843 5843 5843 5843 5844 5844 5844 5844 5845 5845 5846 5847 5847 5848 5848 5849 5849 5850 5850 5850 5850 5851 5851 5851 5852 5853 5853 5854 5854 5854
5843 5843 5843 5843 5843 5844 5844 5845 5845 5845 5845 5844 5844 5843 5843 5842 5842 5842 5842 5842 5841 5841 5841 5841 5841 5840 5841 5840 5840 5840 5840 5839 5839 5838 5838 5839 5839 5840 5840 5839 5839 5839 5839 5839 5839 5839 5839 5839 5839 5840 5840 5840 5841 5841 5841 5842 5842 5842 5843 5843 5843 5844 5844 5844 5845 5845 5846 5847 5847 5847 5848 5849 5849 5849 5849 5850 5850 5851 5851 5851 5852 5853 5853 5854 5854
5841 5841 5841 5841 5842 5842 5842 5842 5842 5842 5842 5841 5841 5841 5840 5839 5839 5840 5840 5839 5839 5839 5839 5838 5838 5838 5838 5838 5838 5838 5838 5838 5838 5837 5837 5837 5838 5838 5838 5838 5838 5838 5838 5838 5838 5837 5838 5838 5838 5838 5838 5839 5839 5840 5840 5840 5841 5842 5842 5842 5843 5843 5843 5844 5844 5845 5845 5846 5846 5847 5847 5848 5848 5849 5849 5849 5850 5850 5850 5851 5851 5852 5853 5853 5854
5838 5838 5839 5839 5840 5840 5840 5839 5839 5839 5839 5838 5838 5838 5838 5837 5837 5837 5837 5837 5836 5836 5836 5836 5836 5836 5836 5836 5835 5835 5836 5836 5836 5836 5835 5836 5836 5836 5836 5836 5836 5837 5836 5836 5836 5836 5836 5837 5837 5837 5837 5837 5838 5839 5839 5839 5840 5841 5841 5841 5842 5842 5843 5843 5844 5844 5845 5845 5846 5846 5847 5847 5848 5848 5849 5849 5849 5850 5850 5850 5851 5851 5852 5852 5853
5836 5836 5837 5837 5837 5837 5837 5836 5836 5836 5836 5835 5835 5835 5835 5835 5834 5834 5834 5833 5833 5833 5833 5833 5833 5833 5833 5833 5832 5833 5833 5834 5834 5834 5834 5834 5834 5834 5834 5834 5835 5835 5835 5834 5834 5834 5835 5835 5835 5836 5836 5836 5836 5837 5838 5838 5839 5839 5840 5841 5841 5841 5842 5842 5843 5843 5844 5844 5845 5845 5846 5846 5847 5847 5848 5848 5849 5849 5849 5850 5850 5850 5851 5852 5852
5834 5834 5835 5834 5834 5834 5834 5833 5833 5832 5832 5832 5832 5832 5832 5832 5831 5830 5830 5830 5829 5829 5829 5830 5830 5829 5829 5830 5830 5831 5831 5832 5832 5832 5833 5833 5833 5833 5832 5832 5833 5833 5833 5833 5833 5833 5833 5834 5834 5834 5835 5835 5835 5836 5836 5837 5837 5838 5838 5839 5840 5840 5841 5841 5842 5842 5843 5843 5844 5844 5845 5846 5846 5847 5847 5848 5848 5848 5849 5849 5849 5850 5850 5851 5851
5832 5833 5832 5832 5831 5831 5830 5830 5829 5829 5829 5829 5829 5829 5829 5828 5827 5827 5826 5825 5825 5825 5826 5827 5826 5826 5825 5826 5827 5828 5829 5830 5830 5830 5831 5831 5831 5831 5830 5830 5831 5831 5831 5831 5831 5831 5832 5832 5832 5833 5833 5834 5834 5834 5835 5835 5836 5836 5837 5838 5839 5839 5840 5840 5841 5841 5842 5842 5843 5843 5844 5845 5845 5846 5846 5847 5847 5848 5848 5848 5849 5849 5850 5850 5851
5830 5830 5830 5829 5828 5827 5826 5826 5826 5826 5825 5826 5826 5826 5825 5824 5823 5822 5821 5821 5822 5823 5824 5824 5824 5823 5822 5823 5825 5826 5827 5827 5828 5828 5828 5829 5829 5828 5828 5828 5829 5829 5829 5829 5829 5830 5830 5830 5831 5831 5832 5832 5833 5833 5833 5833 5834 5834 5835 5836 5837 5838 5839 5839 5840 5840 5841 5841 5842 5842 5843 5844 5844 5845 5845 5846 5846 5847 5847 5848 5848 5848 5849 5849 5850
5828 5828 5827 5826 5824 5823 5823 5823 5823 5823 5823 5822 5823 5822 5821 5820 5819 5817 5817 5818 5819 5820 5822 5822 5821 5820 5820 5821 5823 5824 5825 5825 5826 5826 5826 5826 5826 5826 5826 5826 5827 5827 5828 5828 5828 5829 5829 5829 5829 5829 5830 5830 5831 5832 5832 5832 5832 5833 5834 5835 5835 5836 5837 5838 5838 5839 5840 5840 5841 5841 5842 5842 5843 5844 5844 5845 5845 5846 5847 5847 5847 5848 5848 5848 5849
5825 5824 5824 5823 5822 5821 5820 5820 5820 5820 5820 5820 5820 5819 5818 5816 5815 5815 5816 5817 5818 5818 5819 5818 5818 5818 5818 5819 5822 5823 5823 5823 5823 5823 5824 5824 5824 5824 5825 5825 5825 5825 5826 5827 5827 5827 5827 5827 5828 5828 5828 5829 5830 5830 5831 5830 5830 5831 5832 5833 5833 5834 5835 5836 5837 5838 5838 5839 5839 5840 5840 5841 5842 5842 5843 5844 5844 5845 5845 5846 5847 5847 5847 5848 5848
5822 5821 5820 5820 5819 5818 5817 5817 5818 5818 5817 5816 5816 5815 5814 5814 5813 5814 5815 5816 5817 5816 5815 5816 5816 5817 5817 5819 5822 5822 5821 5821 5821 5821 5822 5822 5822 5823 5823 5823 5823 5823 5824 5825 5825 5826 5826 5826 5826 5826 5827 5827 5828 5829 5829 5829 5829 5829 5830 5831 5831 5832 5833 5834 5835 5836 5836 5837 5837 5838 5839 5840 5840 5841 5842 5842 5843 5843 5844 5845 5845 5846 5846 5847 5847
5819 5818 5817 5816 5815 5814 5814 5815 5815 5817 5817 5815 5814 5812 5812 5813 5812 5813 5814 5814 5815 5814 5814 5815 5816 5817 5817 5819 5821 5822 5821 5820 5819 5819 5820 5820 5821 5821 5821 5821 5821 5821 5822 5823 5824 5824 5824 5825 5825 5825 5825 5826 5827 5827 5828 5828 5828 5827 5827 5828 5829 5830 5831 5832 5833 5834 5835 5835 5836 5837 5838 5838 5839 5840 5840 5841 5842 5842 5843 5844 5844 5845 5845 5846 5847
5816 5815 5814 5813 5812 5811 5811 5812 5812 5813 5815 5815 5815 5814 5812 5813 5812 5812 5813 5812 5813 5813 5814 5815 5815 5816 5817 5818 5819 5820 5821 5819 5817 5817 5818 5818 5819 5819 5819 5819 5818 5819 5820 5821 5821 5822 5822 5823 5823 5823 5824 5824 5825 5826 5826 5826 5826 5826 5825 5826 5827 5828 5829 5830 5831 5832 5832 5833 5834 5835 5836 5837 5838 5838 5839 5840 5840 5841 5842 5842 5843 5844 5844 5845 5846
5813 5811 5810 5809 5808 5809 5809 5810 5810 5810 5812 5812 5812 5812 5811 5811 5812 5812 5811 5812 5813 5813 5813 5814 5814 5814 5815 5816 5817 5818 5819 5818 5816 5816 5816 5816 5816 5816 5816 5816 5816 5816 5816 5818 5819 5819 5820 5820 5820 5821 5821 5822 5823 5823 5824 5824 5824 5824 5824 5824 5825 5826 5827 5827 5828 5829 5830 5831 5832 5833 5834 5834 5835 5837 5838 5838 5839 5839 5840 5841 5842 5842 5843 5844 5844
5809 5808 5806 5805 5806 5807 5807 5808 5808 5808 5809 5809 5809 5809 5809 5809 5810 5811 5810 5811 5812 5812 5812 5812 5812 5813 5813 5814 5815 5816 5816 5815 5814 5814 5814 5814 5814 5814 5814 5814 5814 5813 5814 5815 5816 5817 5817 5817 5818 5819 5819 5820 5821 5821 5822 5822 5822 5822 5822 5823 5823 5824 5825 5825 5826 5826 5827 5828 5829 5831 5832 5833 5833 5834 5835 5837 5837 5838 5839 5840 5840 5841 5842 5842 5843
5806 5804 5803 5803 5805 5806 5806 5806 5805 5806 5807 5807 5807 5807 5807 5807 5808 5809 5809 5810 5809 5810 5811 5810 5810 5811 5811 5812 5813 5814 5814 5814 5812 5812 5812 5812 5812 5812 5812 5812 5812 5812 5812 5812 5813 5814 5814 5815 5816 5817 5817 5818 5819 5820 5820 5821 5821 5821 5821 5821 5821 5822 5823 5823 5824 5825 5825 5826 5827 5829 5830 5831 5831 5832 5833 5834 5836 5837 5837 5838 5839 5839 5840 5841 5842
5802 5800 5800 5802 5805 5804 5803 5802 5802 5803 5805 5806 5807 5806 5805 5806 5807 5807 5808 5808 5808 5809 5809 5809 5809 5810 5810 5811 5811 5812 5812 5812 5811 5810 5809 5809 5810 5810 5810 5810 5810 5810 5810 5810 5810 5811 5812 5813 5814 5815 5815 5816 5817 5818 5819 5819 5819 5819 5819 5819 5820 5820 5821 5821 5822 5822 5823 5823 5825 5827 5828 5829 5829 5830 5831 5832 5833 5835 5836 5836 5837 5838 5838 5839 5840
5799 5797 5799 5803 5803 5801 5800 5800 5801 5802 5803 5804 5805 5806 5805 5805 5806 5806 5807 5807 5807 5808 5808 5808 5809 5809 5809 5809 5809 5810 5810 5810 5810 5808 5807 5808 5808 5808 5808 5808 5808 5807 5808 5808 5808 5809 5810 5811 5812 5813 5814 5814 5815 5816 5817 5818 5818 5818 5818 5817 5818 5818 5819 5819 5820 5820 5820 5821 5822 5824 5826 5827 5828 5828 5829 5830 5831 5832 5834 5835 5835 5836 5836 5837 5838
5796 5797 5800 5802 5800 5798 5800 5801 5801 5801 5801 5802 5804 5804 5805 5805 5805 5805 5805 5805 5805 5806 5807 5807 5807 5807 5808 5808 5808 5808 5808 5808 5807 5807 5806 5806 5806 5806 5806 5805 5805 5805 5805 5806 5807 5807 5808 5809 5810 5811 5812 5813 5814 5814 5815 5816 5816 5816 5816 5816 5816 5817 5817 5818 5818 5818 5818 5819 5820 5822 5824 5825 5826 5827 5827 5828 5829 5830 5831 5832 5833 5834 5834 5835 5836
5797 5799 5799 5800 5798 5798 5799 5799 5799 5800 5800 5801 5802 5804 5804 5804 5804 5803 5803 5804 5804 5805 5805 5806 5806 5806 5806 5806 5807 5807 5806 5806 5805 5805 5805 5805 5805 5804 5804 5803 5803 5803 5803 5804 5805 5806 5806 5807 5808 5809 5810 5811 5812 5813 5814 5814 5814 5814 5814 5814 5815 5815 5816 5816 5816 5816 5816 5817 5818 5820 5821 5823 5824 5825 5825 5826 5826 5827 5828 5830 5831 5831 5832 5833 5834
5797 5798 5797 5797 5797 5797 5797 5797 5798 5799 5799 5800 5801 5802 5803 5803 5802 5802 5802 5803 5803 5804 5804 5804 5804 5804 5804 5805 5805 5805 5804 5804 5803 5803 5804 5804 5803 5803 5802 5801 5802 5802 5802 5802 5803 5804 5805 5805 5806 5807 5808 5809 5810 5811 5812 5812 5813 5813 5813 5813 5813 5814 5814 5814 5814 5815 5815 5815 5817 5818 5819 5820 5821 5822 5823 5823 5824 5825 5826 5827 5828 5828 5829 5830 5831
5795 5796 5796 5795 5795 5795 5795 5796 5797 5798 5799 5799 5800 5801 5802 5801 5800 5801 5801 5802 5802 5802 5802 5802 5803 5803 5803 5803 5803 5803 5802 5802 5802 5803 5803 5802 5802 5802 5801 5801 5800 5801 5801 5801 5802 5802 5803 5803 5804 5805 5806 5807 5808 5809 5810 5811 5812 5812 5812 5812 5812 5812 5812 5812 5813 5813 5813 5814 5815 5816 5817 5818 5818 5819 5820 5821 5822 5823 5823 5824 5825 5825 5826 5827 5828
5793 5794 5795 5795 5794 5794 5795 5796 5797 5798 5798 5798 5798 5799 5800 5799 5799 5799 5800 5800 5800 5801 5801 5801 5801 5801 5801 5801 5801 5800 5800 5800 5801 5802 5802 5801 5801 5800 5800 5799 5799 5799 5800 5800 5801 5801 5801 5801 5802 5803 5804 5805 5806 5807 5808 5809 5810 5811 5811 5811 5811 5811 5811 5811 5811 5811 5812 5812 5813 5814 5815 5815 5816 5816 5817 5818 5819 5820 5821 5822 5822 5823 5824 5825 5825
5792 5792 5793 5794 5794 5794 5794 5795 5795 5796 5795 5796 5796 5797 5798 5798 5798 5799 5799 5799 5799 5799 5799 5800 5800 5800 5800 5800 5799 5798 5798 5798 5800 5801 5801 5800 5800 5799 5799 5798 5798 5798 5798 5798 5799 5800 5800 5800 5800 5801 5802 5803 5804 5806 5807 5808 5809 5809 5810 5810 5810 5810 5810 5810 5810 5810 5810 5811 5811 5812 5812 5813 5814 5814 5815 5816 5817 5818 5819 5819 5820 5821 5822 5822 5822
5792 5792 5792 5793 5793 5793 5792 5791 5792 5792 5793 5793 5794 5795 5796 5797 5797 5797 5797 5798 5798 5798 5798 5798 5798 5798 5798 5798 5798 5797 5797 5797 5798 5799 5799 5798 5798 5798 5798 5798 5797 5798 5797 5797 5797 5798 5798 5798 5799 5800 5800 5801 5802 5803 5805 5806 5807 5807 5808 5809 5809 5809 5809 5809 5809 5808 5809 5809 5809 5810 5810 5811 5811 5811 5812 5814 5814 5816 5817 5817 5818 5818 5819 5819 5819
5791 5791 5792 5793 5792 5791 5789 5787 5788 5790 5790 5791 5793 5794 5794 5795 5795 5796 5796 5797 5797 5797 5797 5797 5797 5797 5797 5797 5796 5796 5796 5796 5797 5797 5797 5796 5797 5797 5797 5797 5797 5796 5796 5796 5795 5796 5797 5797 5798 5798 5798 5798 5800 5801 5802 5804 5805 5805 5806 5807 5807 5808 5808 5807 5807 5807 5807 5807 5807 5808 5808 5809 5809 5810 5811 5812 5812 5813 5814 5815 5815 5815 5815 5816 5816
5791 5791 5792 5792 5790 5787 5785 5785 5786 5788 5789 5789 5791 5792 5792 5793 5793 5794 5795 5795 5796 5795 5795 5795 5795 5795 5795 5795 5795 5794 5794 5794 5795 5795 5795 5795 5796 5796 5796 5796 5796 5795 5795 5794 5794 5795 5796 5796 5796 5796 5796 5797 5798 5800 5801 5802 5803 5804 5804 5805 5806 5806 5806 5806 5806 5806 5806 5806 5806 5806 5807 5807 5808 5809 5810 5811 5811 5811 5812 5812 5812 5812 5812 5812 5812
5790 5790 5791 5791 5789 5785 5783 5784 5786 5786 5787 5788 5789 5790 5790 5791 5792 5793 5794 5794 5794 5794 5793 5793 5793 5793 5793 5793 5793 5793 5792 5793 5793 5793 5794 5794 5794 5795 5795 5795 5794 5794 5794 5793 5793 5794 5795 5795 5794 5795 5795 5796 5797 5799 5800 5801 5801 5802 5803 5803 5804 5804 5804 5805 5804 5804 5804 5804 5805 5805 5805 5806 5807 5807 5808 5810 5810 5810 5809 5810 5810 5809 5808 5808 5808
5788 5789 5790 5790 5789 5786 5783 5783 5785 5785 5785 5786 5787 5788 5789 5789 5791 5792 5792 5793 5792 5792 5792 5792 5792 5792 5792 5792 5792 5792 5791 5791 5791 5792 5792 5792 5793 5793 5793 5793 5793 5793 5793 5793 5793 5793 5793 5793 5793 5794 5795 5795 5797 5797 5798 5799 5799 5800 5801 5801 5802 5802 5802 5803 5803 5803 5803 5803 5803 5804 5804 5804 5805 5806 5806 5808 5809 5808 5807 5806 5806 5806 5805 5805 5806
5786 5787 5788 5789 5788 5787 5785 5784 5786 5784 5783 5784 5785 5786 5787 5788 5789 5790 5791 5791 5791 5790 5790 5791 5791 5791 5791 5791 5791 5791 5791 5790 5790 5790 5791 5791 5792 5792 5792 5792 5792 5792 5792 5792 5792 5792 5792 5792 5792 5793 5794 5794 5795 5796 5797 5797 5798 5798 5799 5799 5800 5800 5800 5801 5801 5801 5801 5801 5802 5802 5802 5802 5803 5804 5805 5806 5806 5807 5806 5804 5803 5803 5802 5803 5804
5784 5785 5786 5787 5785 5784 5785 5785 5785 5784 5782 5783 5784 5785 5786 5787 5788 5789 5789 5789 5789 5789 5790 5790 5790 5790 5790 5790 5790 5790 5789 5789 5789 5789 5789 5789 5790 5790 5791 5791 5791 5790 5791 5791 5791 5791 5791 5791 5791 5792 5793 5793 5794 5795 5796 5796 5796 5797 5797 5798 5798 5798 5798 5799 5799 5799 5799 5800 5800 5800 5801 5801 5801 5802 5802 5803 5804 5804 5803 5802 5801 5800 5799 5800 5801
5782 5783 5784 5785 5783 5781 5784 5784 5783 5783 5783 5783 5783 5784 5785 5786 5787 5788 5788 5788 5788 5789 5789 5789 5789 5789 5789 5788 5788 5788 5788 5787 5787 5787 5787 5787 5788 5788 5788 5789 5789 5789 5789 5789 5789 5790 5790 5790 5790 5791 5791 5792 5793 5794 5794 5795 5795 5795 5796 5796 5796 5797 5797 5797 5797 5797 5797 5798 5798 5798 5799 5799 5799 5800 5800 5801 5801 5801 5801 5800 5800 5799 5798 5798 5799
5779 5780 5781 5783 5782 5779 5782 5782 5782 5783 5783 5782 5782 5783 5784 5785 5786 5786 5787 5787 5787 5788 5788 5787 5787 5787 5787 5786 5786 5786 5786 5786 5785 5785 5785 5786 5786 5786 5786 5786 5786 5787 5787 5787 5788 5788 5788 5788 5789 5789 5790 5790 5791 5792 5793 5793 5794 5794 5794 5795 5795 5795 5795 5796 5796 5796 5796 5795 5796 5796 5796 5797 5797 5798 5798 5799 5799 5798 5798 5798 5798 5797 5797 5797 5797
5776 5777 5778 5781 5781 5779 5779 5780 5780 5781 5781 5780 5781 5781 5783 5783 5784 5785 5786 5786 5786 5786 5786 5786 5786 5785 5785 5785 5785 5785 5785 5784 5784 5784 5784 5784 5784 5784 5784 5784 5784 5785 5785 5785 5786 5786 5787 5787 5787 5788 5788 5789 5790 5790 5791 5792 5792 5792 5792 5793 5793 5794 5793 5794 5793 5793 5793 5793 5793 5794 5794 5795 5795 5796 5796 5796 5796 5796 5796 5796 5796 5795 5795 5795 5795
5773 5775 5776 5779 5780 5779 5779 5777 5777 5779 5779 5779 5779 5780 5781 5782 5783 5784 5784 5785 5785 5785 5785 5785 5784 5784 5784 5784 5783 5783 5783 5783 5783 5783 5783 5783 5783 5783 5783 5783 5783 5783 5783 5784 5784 5785 5785 5785 5786 5786 5787 5788 5788 5789 5789 5790 5790 5790 5790 5791 5792 5792 5792 5792 5792 5790 5791 5792 5792 5792 5793 5793 5793 5794 5794 5794 5794 5794 5794 5795 5794 5794 5793 5794 5793
5770 5773 5774 5776 5778 5778 5778 5776 5775 5776 5776 5776 5777 5778 5779 5780 5781 5781 5782 5782 5783 5783 5783 5783 5783 5783 5783 5783 5782 5782 5782 5782 5782 5782 5781 5781 5781 5781 5781 5781 5781 5781 5782 5782 5782 5783 5783 5784 5784 5784 5785 5786 5786 5787 5787 5788 5788 5789 5789 5789 5790 5790 5790 5791 5790 5789 5790 5790 5790 5790 5790 5791 5791 5792 5792 5792 5792 5792 5793 5793 5793 5792 5792 5792 5792
5769 5771 5772 5774 5775 5775 5776 5774 5773 5773 5773 5774 5774 5776 5777 5777 5778 5779 5780 5780 5780 5780 5780 5781 5781 5781 5781 5781 5781 5781 5780 5781 5781 5781 5780 5780 5780 5780 5780 5780 5780 5780 5780 5780 5781 5781 5781 5782 5782 5783 5783 5784 5784 5785 5785 5786 5786 5786 5787 5787 5788 5788 5788 5788 5788 5788 5788 5788 5788 5788 5788 5789 5789 5790 5790 5790 5790 5791 5791 5791 5790 5789 5789 5790 5790
5768 5770 5770 5771 5772 5772 5772 5772 5772 5771 5770 5770 5771 5773 5774 5775 5775 5776 5777 5778 5778 5778 5779 5779 5779 5779 5780 5780 5780 5779 5779 5779 5779 5779 5779 5779 5779 5779 5779 5778 5778 5778 5778 5779 5779 5779 5780 5780 5781 5781 5781 5782 5782 5782 5783 5783 5784 5784 5784 5785 5785 5786 5786 5786 5786 5786 5786 5786 5786 5786 5787 5787 5787 5787 5788 5788 5788 5788 5788 5788 5787 5787 5788 5788 5788
5769 5769 5768 5767 5767 5768 5769 5769 5768 5767 5766 5767 5768 5770 5771 5772 5773 5774 5775 5776 5776 5776 5777 5777 5777 5778 5778 5778 5778 5778 5778 5777 5777 5777 5777 5777 5777 5777 5777 5777 5777 5776 5777 5777 5777 5778 5778 5779 5779 5780 5780 5780 5780 5780 5781 5781 5782 5782 5782 5782 5783 5783 5783 5784 5784 5784 5784 5784 5784 5784 5784 5785 5785 5785 5785 5785 5785 5786 5785 5785 5785 5785 5786 5787 5786
5767 5764 5763 5763 5764 5766 5767 5767 5766 5765 5765 5765 5766 5768 5770 5770 5771 5772 5773 5774 5774 5775 5775 5775 5776 5776 5776 5777 5777 5777 5776 5776 5776 5775 5775 5775 5775 5775 5775 5775 5775 5775 5775 5775 5775 5776 5776 5777 5777 5778 5778 5778 5778 5778 5779 5779 5780 5780 5780 5780 5780 5781 5781 5782 5782 5782 5782 5782 5782 5782 5782 5782 5782 5782 5782 5782 5783 5783 5783 5783 5782 5783 5783 5783 5783
5761 5758 5758 5761 5764 5766 5766 5767 5769 5769 5768 5766 5766 5767 5768 5769 5769 5770 5771 5772 5772 5773 5773 5774 5774 5774 5774 5775 5775 5775 5775 5775 5774 5774 5774 5773 5773 5773 5773 5773 5773 5773 5773 5773 5774 5774 5774 5775 5775 5776 5776 5776 5776 5776 5777 5777 5778 5778 5778 5778 5779 5779 5779 5779 5780 5780 5780 5780 5779 5779 5779 5779 5780 5780 5780 5780 5780 5780 5780 5780 5779 5780 5780 5780 5780